Terug naar catalogus

COSMOS 970 DEB

ActiefLEO
NORAD 64980·DEBRIS·🇷🇺 Russia

Gelanceerd Dec 21, 1977 vanaf Baikonur Cosmodrome

Loading…

Volgende Passages (komende 24 uur)

TLE

VerouderendSource: Space-Track

Epoch: Sep 12, 2026, 10:12 UTC

1 64980U 77121CR  26255.42567222  .00000216  00000-0  30701-3 0  9998
2 64980  65.8312 136.3168 0111833 122.9959  50.9847 13.72879322119228

Volg COSMOS 970 DEB in realtime met AllMySat

Download on the App Store